Location: Newark
(41.1192°N, 81.5292°W)
Time: 01:58:57
(UTC+00:00)

N. Korean satellite - Pass Details

Date: 15 November 2019
Orbit: 456 x 506 km, 97.2° (Epoch: 07 December)

Event Time Altitude Azimuth Distance (km) Brightness Sun altitude
Rises 10:59:50 0° 17° (NNE) 2,618 10.3 -14.0°
Reaches altitude 10° 11:01:59 10° 23° (NNE) 1,725 9.5 -13.6°
Maximum altitude 11:05:36 48° 99° (E) 668 7.8 -13.0°
Drops below altitude 10° 11:09:08 10° 174° (S) 1,695 9.6 -12.3°
Sets 11:11:15 0° 181° (S) 2,566 10.4 -11.9°
